Regional Weather Roundup
Issued by NWS

Home | Current Version | Previous Version | Text Only | Print | Product List | Glossary On
Versions: 1 2 3 4 5 6 7 8 9 10 11 12 13 14 15 16 17 18 19 20 21 22 23 24 25 26 27 28 29 30 31 32 33 34 35 36 37 38 39 40 41 42 43 44 45 46 47 48 49 50
000
ASUS43 KTOP 150908
RWRKS

WEATHER ROUNDUP FOR KANSAS
NATIONAL WEATHER SERVICE GOODLAND KS
300 AM CST FRI DEC 15 2017

NOTE:  "FAIR" INDICATES FEW OR NO CLOUDS BELOW 12,000 FEET WITH NO
SIGNIFICANT WEATHER AND/OR OBSTRUCTIONS TO VISIBILITY.

KSZ001>006-013>018-027>032-041>047-151000-
NORTHWEST KANSAS

CITY           SKY/WX    TMP DP  RH WIND       PRES   REMARKS
GOODLAND       CLOUDY    19  15  84 W12       30.17F WCI   7
HAYS           MOCLDY    27  23  85 NW7       30.23S
HILL CITY      CLEAR     23  19  85 W7        30.21S
RUSSELL        CLEAR     25  24  96 W7        30.21S
$$

KSZ061>065-074>080-084>089-151000-
SOUTHWEST KANSAS

CITY           SKY/WX    TMP DP  RH WIND       PRES   REMARKS
DODGE CITY     CLEAR     25  19  78 W9        30.24S
ELKHART        CLEAR     26  22  86 W8        30.26S
GARDEN CITY    CLEAR     14  11  87 W8        30.24F
GREAT BEND     CLEAR     21  19  92 W8        30.24R
LIBERAL        CLEAR     19  16  88 W9        30.27F
PRATT          CLEAR     24  20  84 NW9       30.24R
$$

KSZ066>073-081>083-090>101-151000-
SOUTHEAST KANSAS

CITY           SKY/WX    TMP DP  RH WIND       PRES   REMARKS
CHANUTE        CLOUDY    39  31  72 NW10      30.17R WCI  32
COFFEYVILLE    CLOUDY    42  32  67 NW13      30.18R
HUTCHINSON     CLEAR     30  28  92 NW10      30.21R WCI  21
MEDICINE LODGE   N/A     27  23  85 W5        30.25R
NEWTON         CLOUDY    36  30  79 NW8       30.20R
PARSONS        CLOUDY    39  33  79 NW8       30.18R
WICHITA INTL   PTCLDY    33  30  88 NW9       30.20S
WICHITA JABRA  MOCLDY    36  31  82 NW9       30.19S
WICHITA MCCONL CLEAR     34  29  81 NW7       30.19S
WINFIELD       MOCLDY    33  31  92 NW8       30.22R
$$

KSZ007>012-019>026-033>040-048>060-102>105-151000-
NORTHEAST KANSAS

CITY           SKY/WX    TMP DP  RH WIND       PRES   REMARKS
CONCORDIA      PTCLDY    27  25  92 NW8       30.19R
EMPORIA        CLOUDY    34  31  88 W7        30.16S
LAWRENCE       CLOUDY    37  32  82 W7        30.14S
MANHATTAN      CLEAR     35  30  82 VRB5      30.19R
MARYSVILLE     CLOUDY    32  30  93 W5        30.17R
OLATHE IND     CLOUDY    36  31  82 NW7       30.14S
OLATHE EXE     CLOUDY    35  30  82 NW7       30.13R
SALINA         MOCLDY    33  29  85 NW10      30.21R WCI  25
TOPEKA BILLARD CLOUDY    38  34  85 W8        30.15S
TOPEKA FORBES  CLOUDY    38  33  82 NW9       30.15R
$$




USA.gov is the U.S. government's official web portal to all federal, state and local government web resources and services.